Location: Newark
(13.6797°N, 8.5297°E)
Time: 15:24:15
(UTC+00:00)

Altair - Pass Details

Date: 28 January 2020
Orbit: 1502 x 1682 km, 47.2° (Epoch: 25 February)

Event Time Altitude Azimuth Distance (km) Brightness Sun altitude
Rises 14:57:01 0° 319° (NW) 4,902 10.2 31.6°
Reaches altitude 10° 15:00:12 10° 320° (NW) 3,898 9.8 31.0°
Maximum altitude 15:10:12 83° 49° (NE) 1,624 8.1 28.9°
Drops below altitude 10° 15:19:48 10° 136° (SE) 3,756 9.5 26.9°
Sets 15:22:49 0° 137° (SE) 4,717 9.9 26.2°
